Flag for Hong Kong Weather past 2 weeks in Kowloon, Hong Kong

Now
88 °F

Scattered clouds.


Feels Like: 100 °F
Forecast: 86 / 91 °F
Wind: 20 mph from East

Location: National Airport

Current Time: Aug 28, 2014 at 11:29:58 AM

Latest Report: Aug 28, 2014 at 11:00 AM


Visibility: N/A

Pressure: 29.92 "Hg

Humidity: 70%

Dew point: 77 °F

Location of KowloonLocation

Historic Weather in Kowloon — Graph

°F

Kowloon temperature yesterday

Maximum temperature yesterday: 91 °F (at 1:30 PM)
Minimum temperature yesterday: 84 °F (at 1:00 AM)
Average temperature yesterday: 87 °F

Past Weeks' High & Low Weather Summary

 TemperatureHumidityPressure
High93 °F (Aug 16, 2:00 PM)94% (Aug 19, 2:30 PM)29.89 "Hg (Aug 19, 2:30 PM)
Low75 °F (Aug 20, 5:30 AM)49% (Aug 25, 4:30 PM)29.62 "Hg (Aug 13, 10:00 AM)
Average85 °F74%29.80 "Hg
* Reported Aug 13 10:00 AM — Aug 28 10:30 AM, Kowloon, Weather by CustomWeather, © 2014

Note: Actual official high and low records may vary slightly from our data, if they occured in-between our weather recording intervals... More about our weather records

Advertising

Kowloon weather history for previous 24 hours

 ConditionsComfort  
Time TempWeatherWind HumidityBarometerVisibility
10:30 AM
Aug 28
88 °FScattered clouds.18 mph75%29.89 "HgN/A
10:00 AM88 °FScattered clouds.18 mph70%29.89 "HgN/A
9:30 AM86 °FScattered clouds.17 mph79%29.89 "HgN/A
9:00 AM84 °FSprinkles. Scattered clouds.22 mph74%29.89 "HgN/A
8:30 AM86 °FScattered clouds.20 mph79%29.89 "HgN/A
8:00 AM86 °FScattered clouds.18 mph75%29.89 "HgN/A
7:30 AM84 °FScattered clouds.16 mph79%29.86 "HgN/A
7:00 AM84 °FScattered clouds.15 mph84%29.86 "HgN/A
6:30 AM84 °FScattered clouds.14 mph79%29.86 "HgN/A
6:00 AM82 °FPassing clouds.14 mph89%29.83 "HgN/A
5:30 AM84 °FSprinkles. Passing clouds.16 mph84%29.83 "HgN/A
5:00 AM84 °FPassing clouds.16 mph79%29.83 "HgN/A
4:30 AM84 °FPassing clouds.15 mph79%29.83 "HgN/A
4:00 AM84 °FPassing clouds.14 mph79%29.83 "HgN/A
3:30 AM84 °FPassing clouds.15 mph79%29.83 "HgN/A
3:00 AM84 °FPassing clouds.13 mph79%29.83 "HgN/A
2:00 AM84 °FPassing clouds.10 mph79%29.83 "HgN/A
1:30 AM84 °FPassing clouds.13 mph79%29.83 "HgN/A
1:00 AM84 °FPassing clouds.12 mph79%29.86 "HgN/A
12:30 AM84 °FPassing clouds.13 mph79%29.86 "HgN/A
12:00 AM84 °FPassing clouds.10 mph79%29.86 "HgN/A
11:00 PM
Aug 27
84 °FPassing clouds.14 mph84%29.86 "HgN/A
10:30 PM84 °FSprinkles. Passing clouds.14 mph84%29.86 "HgN/A
10:00 PM84 °FSprinkles. Passing clouds.13 mph84%29.86 "HgN/A
9:30 PM84 °FSprinkles. Passing clouds.17 mph84%29.86 "HgN/A
9:00 PM86 °FSprinkles. Passing clouds.18 mph79%29.83 "HgN/A
8:30 PM84 °FSprinkles. Passing clouds.16 mph84%29.83 "HgN/A
8:00 PM84 °FPassing clouds.16 mph84%29.83 "HgN/A
7:30 PM84 °FPassing clouds.20 mph79%29.80 "HgN/A
7:00 PM84 °FSprinkles. Passing clouds.13 mph84%29.80 "HgN/A
6:30 PM84 °FThunderstorms. Scattered clouds.16 mph84%29.80 "Hg4 mi
6:00 PM86 °FSprinkles. Scattered clouds.20 mph79%29.80 "HgN/A
5:30 PM88 °FScattered clouds.22 mph70%29.80 "HgN/A
5:00 PM90 °FScattered clouds.21 mph63%29.77 "HgN/A
4:30 PM90 °FScattered clouds.22 mph63%29.80 "HgN/A
4:00 PM90 °FScattered clouds.21 mph63%29.80 "HgN/A
3:30 PM91 °FScattered clouds.22 mph59%29.80 "HgN/A
3:00 PM91 °FScattered clouds.17 mph59%29.80 "HgN/A
2:30 PM91 °FScattered clouds.21 mph59%29.80 "HgN/A
2:00 PM91 °FScattered clouds.20 mph59%29.83 "HgN/A
1:30 PM91 °FScattered clouds.20 mph59%29.80 "HgN/A
1:00 PM90 °FScattered clouds.20 mph63%29.83 "HgN/A
12:30 PM90 °FScattered clouds.21 mph59%29.83 "HgN/A
12:00 PM90 °FScattered clouds.18 mph63%29.83 "HgN/A
11:30 AM90 °FPassing clouds.17 mph59%29.83 "HgN/A
11:00 AM88 °FSprinkles. Passing clouds.18 mph62%29.83 "HgN/A
Weather by CustomWeather, © 2014

See weather overviewHow to use our weather pages